EHI
0 0 0 0 0 0 0 0 0 0 0 0 0 0 0 0 0 0 0 1 2 2 1 0 0 0 0 0 0 0 0 0 0 0 0 0 0 0 0 0 0 0 0
0 0 0 0 0 0 0 0 0 0 0 0 0 0 0 0 0 0 0 1 2 1 0 0 0 0 0 0 0 0 0 0 0 0 0 0 0 0 0 0 0 0 0
0 0 0 0 0 0 0 0 0 0 0 0 0 0 0 0 0 0 0 2 2 1 1 0 0 0 0 0 0 0 0 0 0 0 0 0 0 0 0 0 0 0 0
0 0 0 0 0 0 0 0 0 0 0 0 0 0 0 0 0 0 0 1 2 2 2 1 0 0 0 0 0 0 0 0 0 0 0 0 0 0 0 0 0 0 0
0 0 0 1 1 1 1 1 0 0 0 0 0 0 0 0 0 0 0 0 1 2 2 1 0 0 0 0 0 0 0 0 0 0 0 0 0 0 0 0 0 0 0
0 0 1 2 2 2 2 1 0 0 0 0 0 0 0 0 0 1 2 1 1 2 1 0 0 0 0 0 0 0 0 0 0 0 0 0 0 0 0 0 0 0 0
0 0 1 2 2 1 1 1 0 0 0 0 0 0 0 0 1 2 3 2 2 2 1 0 0 0 0 0 0 0 0 0 0 0 0 0 0 0 0 0 0 0 0
0 0 1 1 1 0 0 0 0 0 0 0 0 0 0 0 1 2 2 2 1 1 0 0 0 0 0 0 0 0 0 0 0 0 0 0 0 0 0 0 0 0 0
1 1 1 0 0 0 0 0 0 0 0 0 0 0 0 0 0 1 1 1 0 0 0 0 0 0 0 0 0 0 0 0 0 0 0 0 0 0 0 0 0 0 0
1 1 1 1 1 0 0 0 0 0 0 0 0 0 0 0 0 0 0 0 0 0 0 0 0 0 0 0 0 0 0 0 0 0 0 0 0 0 0 0 0 0 0
0 1 2 2 1 0 0 0 0 0 0 0 0 0 0 0 0 0 0 0 0 0 0 0 0 0 0 0 0 0 0 0 0 0 0 0 0 0 0 0 0 0 0
0 1 1 1 1 0 0 0 0 0 0 0 0 0 0 0 0 0 0 0 0 0 0 0 0 0 0 0 0 0 0 0 0 0 0 0 0 0 0 0 0 0 0
0 0 0 0 0 0 0 0 0 0 0 0 0 0 0 0 0 0 0 0 0 0 0 0 0 0 0 0 0 0 0 0 0 0 0 0 0 0 0 0 0 0 0
0 0 0 1 1 0 0 0 0 0 0 0 0 0 0 0 0 0 0 0 0 0 0 0 0 0 0 0 0 0 0 0 0 0 0 0 0 0 0 0 0 0 0
0 0 1 2 2 1 0 0 0 0 0 0 0 0 0 0 0 0 0 0 0 0 0 0 0 0 0 0 0 0 0 0 0 0 0 0 0 0 0 0 0 0 0
0 0 1 2 2 1 0 0 0 0 0 0 0 0 0 0 0 0 0 0 0 0 0 0 0 0 0 0 0 0 0 0 0 0 0 0 0 0 0 0 0 0 0
0 0 0 1 1 0 0 0 0 0 0 0 0 0 0 0 0 0 0 0 0 0 0 0 0 0 0 0 0 0 0 0 0 0 0 0 0 0 0 0 0 0 0
0 0 0 0 0 0 0 0 0 0 0 0 0 0 0 0 0 0 0 0 0 0 0 0 0 0 0 0 0 0 0 0 0 0 0 0 0 0 0 0 0 0 0
0 0 0 0 0 0 0 0 0 0 0 0 0 0 0 0 0 0 0 0 0 0 0 0 0 0 0 0 0 0 0 0 0 0 0 0 0 0 0 0 0 0 0
0 0 0 0 0 0 0 0 0 0 0 0 0 0 0 0 0 0 0 0 0 0 0 0 0 0 0 0 0 0 0 0 0 0 0 0 0 0 0 0 0 0 0
0 0 0 0 0 0 0 0 0 0 0 0 0 0 0 0 0 0 0 0 0 0 0 0 0 0 0 0 0 0 0 0 0 0 0 0 0 0 0 0 0 0 0
0 0 0 0 0 0 0 0 0 0 0 0 0 0 0 0 0 0 0 0 0 0 0 0 0 0 0 0 0 0 0 0 0 0 0 0 0 0 0 0 0 0 0
0 0 0 0 0 0 0 0 0 0 0 0 0 0 0 0 0 0 0 0 0 0 0 0 0 0 0 0 0 0 0 0 0 0 0 0 0 0 0 0 0 0 0
0 0 0 0 0 0 0 0 0 0 0 0 0 0 0 0 0 0 0 0 0 0 0 0 0 0 0 0 0 0 0 0 0 0 0 0 0 0 0 0 0 0 0
0 0 0 0 0 0 0 0 0 0 0 0 0 0 0 0 0 0 0 0 0 0 0 0 0 0 0 0 0 0 0 0 0 0 0 0 0 0 0 0 0 0 0
0 0 0 0 0 0 0 0 0 0 0 0 0 0 0 0 0 0 0 0 0 0 0 0 0 0 0 0 0 0 0 0 0 0 0 0 0 0 0 0 0 0 0
Wind_Speed
2 3 1 3 5 6 7 8 8 9 9 9 9 9 10 10 10 10 9 10 10 10 10 11 11 11 12 12 13 13 13 13 13 13 13 12 11 12 12 12 10 7 13
1 1 2 4 5 6 7 7 8 8 8 8 9 9 9 9 9 9 9 9 10 10 10 10 11 11 12 12 12 12 12 12 12 12 11 9 9 10 11 11 10 7 12
2 2 2 4 5 6 7 7 7 7 7 8 8 8 9 9 9 9 9 9 9 10 10 10 11 11 11 11 11 11 12 12 11 11 10 5 6 9 10 10 10 11 11
3 2 2 5 6 6 7 7 7 7 7 7 8 8 8 9 9 9 9 9 9 9 10 10 10 10 10 10 10 10 11 10 10 10 6 4 4 8 9 10 10 10 10
4 3 3 7 6 7 7 7 7 7 7 7 7 8 8 8 8 9 9 9 9 9 9 9 9 9 9 10 10 9 10 10 10 8 5 4 3 6 8 9 9 9 10
5 4 4 8 8 8 8 7 7 6 7 7 8 8 8 9 9 9 9 9 9 9 8 8 8 8 9 9 9 9 9 9 8 5 4 4 3 5 7 8 8 8 9
5 5 5 8 8 8 8 8 8 7 6 7 8 8 8 8 9 9 9 9 8 8 8 7 7 8 8 8 8 8 8 8 6 4 4 3 3 5 7 7 7 8 8
5 5 5 7 8 8 8 8 8 8 8 8 8 8 8 8 8 8 9 8 8 7 7 7 7 7 7 7 7 7 7 6 5 4 3 2 3 5 6 6 6 7 8
5 5 5 5 6 7 8 8 8 8 8 8 8 9 8 8 8 8 8 8 8 7 7 7 7 7 7 7 7 7 7 7 4 2 3 2 3 4 5 5 5 6 6
6 5 5 5 5 5 5 8 9 8 8 9 9 9 9 8 8 8 7 8 8 7 7 7 7 7 7 8 7 7 7 6 4 3 2 2 3 4 4 4 4 4 5
5 5 4 5 5 4 4 6 7 8 8 8 7 9 7 4 4 5 7 7 8 8 8 8 8 8 7 7 7 7 6 3 3 2 2 2 3 3 3 3 3 4 4
4 4 4 4 4 4 4 4 3 4 4 5 4 4 3 3 3 5 7 8 8 8 8 8 8 8 6 3 4 6 2 3 2 2 2 4 2 2 3 2 3 3 4
2 4 4 4 4 4 3 3 2 2 3 4 4 4 3 3 3 3 3 4 5 6 4 5 5 4 3 2 2 2 2 2 2 2 3 4 3 2 1 1 2 3 3
3 3 4 4 3 3 3 2 2 2 2 2 3 4 2 2 3 2 2 2 3 2 3 3 2 3 3 3 2 2 2 2 1 1 2 6 4 1 1 1 1 2 3
3 3 4 3 3 3 3 2 2 2 2 2 2 3 3 2 2 2 2 2 2 2 2 2 2 3 3 3 3 3 2 2 2 2 2 5 5 3 1 1 0 1 3
3 3 3 3 3 3 3 2 2 2 2 2 2 3 3 2 1 1 2 2 2 2 2 2 2 2 2 2 3 3 2 2 2 2 2 3 5 5 2 1 1 0 2
3 4 4 3 4 3 3 2 2 2 2 2 2 3 3 2 1 1 1 2 2 2 2 2 2 2 2 2 3 3 2 2 2 2 2 2 2 4 4 2 2 1 0
3 4 4 4 4 4 3 2 2 2 2 2 2 2 3 3 2 1 1 1 1 1 1 1 2 2 2 2 2 2 2 2 2 2 2 2 2 2 4 4 3 2 2
3 3 4 5 4 4 3 2 2 2 2 2 2 2 3 3 3 1 1 1 1 1 1 1 1 1 1 2 2 2 2 2 2 2 2 2 2 2 2 4 4 3 3
4 4 4 5 5 4 3 2 2 3 2 2 2 3 3 3 3 2 1 1 1 1 1 1 1 2 1 1 2 2 2 2 1 2 2 2 2 2 2 2 2 3 4
4 5 5 5 5 4 3 2 2 2 2 2 2 3 3 3 3 2 1 1 1 0 0 0 1 1 1 1 1 2 2 1 1 1 2 2 2 2 2 2 2 2 2
4 4 4 4 4 4 3 2 1 1 1 2 2 3 3 3 3 2 2 1 1 1 0 0 1 1 1 1 1 1 2 2 2 2 2 2 2 2 2 2 2 2 1
4 4 3 4 4 4 4 3 3 2 2 2 3 3 4 4 3 3 2 1 1 1 1 1 1 1 1 0 0 1 1 2 2 2 1 1 2 2 2 2 2 2 2
2 3 3 4 4 4 3 3 3 2 2 3 3 3 4 4 4 3 2 2 1 1 0 1 0 1 2 1 0 0 0 1 1 2 2 1 2 2 2 2 2 2 2
2 3 3 4 4 5 4 3 2 2 2 3 3 4 4 4 4 4 3 2 2 1 1 1 1 1 1 2 1 1 0 0 1 1 2 2 2 2 2 2 1 1 2
2 3 3 4 4 4 4 4 3 3 3 4 4 4 4 3 3 4 4 2 2 2 1 1 1 1 1 2 2 1 1 1 1 1 2 2 3 2 2 2 1 1 1
Wind_Direction
306 307 342 102 99 98 94 90 87 87 87 85 83 82 79 76 75 75 73 70 71 71 74 76 77 77 75 74 72 70 69 68 67 66 65 66 69 73 74 74 70 69 78
239 323 56 96 107 106 99 94 89 85 86 86 85 83 79 76 75 73 74 72 70 70 71 73 74 74 74 73 73 72 69 69 66 62 57 56 64 74 76 78 77 78 81
73 37 50 85 102 107 103 98 93 87 85 87 86 84 81 78 75 72 72 72 70 68 68 72 73 73 74 74 74 73 70 68 65 60 55 47 62 76 79 80 82 81 82
77 54 40 83 96 101 102 100 96 91 86 85 84 82 79 77 74 72 72 73 71 69 67 71 74 75 75 74 73 72 69 66 62 58 48 39 49 75 79 82 83 82 82
63 45 50 76 90 95 95 98 96 91 87 83 82 80 77 76 74 72 70 70 69 68 67 68 74 75 74 73 71 70 66 62 58 50 40 38 44 73 78 83 83 83 84
53 39 45 64 73 83 84 83 84 85 85 82 80 78 77 75 73 71 70 68 66 66 68 67 70 74 73 71 70 69 65 59 55 42 36 34 42 78 82 87 89 89 87
53 38 40 59 59 65 70 70 67 66 72 77 79 78 75 73 71 67 66 65 65 65 68 69 69 75 74 73 71 67 63 57 55 43 34 32 50 82 87 89 93 95 93
59 47 42 49 54 53 55 58 58 57 58 66 68 70 70 67 67 68 64 63 62 64 68 70 70 70 75 73 71 68 62 56 56 39 27 30 62 78 85 88 93 99 97
55 53 42 36 41 44 46 48 48 52 54 56 60 57 56 57 58 60 61 62 60 59 62 68 69 64 69 73 68 62 58 54 50 32 22 24 63 80 84 88 92 100 98
49 45 39 34 39 37 31 41 43 45 50 50 54 54 51 51 51 49 51 56 56 58 59 63 65 64 64 69 66 60 56 52 39 25 13 24 58 77 83 85 91 102 105
42 34 32 33 35 36 37 38 40 43 47 48 48 50 48 41 42 42 40 49 53 53 54 59 61 62 60 61 61 55 49 45 36 21 0 18 59 77 84 86 95 104 108
32 22 25 32 31 36 39 35 31 39 38 39 42 40 37 32 36 46 40 42 47 50 51 52 55 57 52 48 49 48 45 38 35 12 5 11 39 74 84 86 102 111 117
30 23 20 26 32 41 40 37 30 29 36 33 36 37 38 37 34 38 36 33 35 41 39 40 42 35 37 42 43 46 48 41 28 1 356 2 9 50 79 91 114 124 135
34 17 11 21 33 41 46 45 41 34 37 34 23 29 42 43 33 28 33 26 29 28 32 30 40 34 28 28 39 49 50 41 23 3 357 2 356 5 47 63 149 147 147
34 12 7 15 32 43 51 45 48 38 38 36 26 17 33 48 43 30 26 29 28 27 34 29 34 37 30 19 20 30 31 27 15 6 353 0 359 357 13 30 72 171 162
16 7 9 18 25 43 47 44 47 41 32 33 34 18 23 35 47 51 35 27 25 18 26 35 29 28 25 23 18 15 11 10 8 3 357 350 358 0 359 354 349 239 200
13 15 16 17 24 38 47 46 43 28 28 27 20 20 20 20 33 50 52 35 15 14 25 39 37 29 25 22 12 6 11 11 5 359 356 357 346 349 352 354 356 8 276
24 25 19 21 24 23 31 42 46 32 24 23 18 13 12 6 12 43 56 31 14 26 37 48 52 34 19 14 359 348 357 355 1 357 2 4 2 348 343 354 8 9 12
30 30 27 26 22 14 17 32 43 41 28 15 16 7 360 3 2 9 46 17 23 36 33 27 46 50 18 3 350 346 352 348 347 358 9 2 358 355 343 340 353 0 1
37 35 33 31 25 18 16 26 32 32 21 18 16 1 356 355 357 2 17 6 25 48 28 34 67 45 41 1 352 349 337 332 352 5 356 353 357 1 355 354 355 347 353
36 32 27 26 21 23 12 8 4 355 350 354 4 4 357 353 350 355 357 359 360 19 355 18 94 71 35 14 24 349 336 345 22 9 356 12 8 359 6 11 9 8 346
30 24 22 18 17 18 10 353 335 326 332 335 346 357 353 350 346 343 347 329 330 320 21 38 101 97 55 36 61 20 331 331 354 356 355 21 360 352 5 4 6 8 350
20 10 8 5 13 12 13 16 5 10 4 355 349 347 343 341 342 339 327 317 312 284 244 233 185 148 160 171 58 146 170 248 317 317 329 359 346 351 348 350 359 355 353
0 5 9 10 17 16 22 28 21 10 346 325 324 324 334 341 336 338 333 339 320 303 286 257 257 202 165 185 243 284 208 175 197 303 308 321 332 337 336 338 335 340 352
7 14 12 17 20 18 21 23 22 5 337 329 333 333 335 333 335 336 333 338 328 317 307 298 290 250 201 202 201 217 227 358 196 215 277 302 314 299 302 301 305 314 332
15 17 16 19 15 13 15 15 12 357 344 341 340 333 328 327 329 339 336 329 315 306 291 278 255 253 238 228 219 207 198 198 203 210 244 277 284 285 285 273 275 292 310